TimePST,TemperatureF,Dew PointF,Humidity,Sea Level PressureIn,VisibilityMPH,Wind Direction,Wind SpeedMPH,Gust SpeedMPH,PrecipitationIn,Events,Conditions,WindDirDegrees,DateUTC
12:55 AM,39.0,37.9,96,30.21,6.0,Calm,Calm,-,N/A,,Clear,0,2013-01-08 08:55:00
1:55 AM,37.9,37.0,97,30.21,6.0,ESE,5.8,-,N/A,,Clear,120,2013-01-08 09:55:00
2:55 AM,37.0,36.0,96,30.21,5.0,East,4.6,-,N/A,,Clear,100,2013-01-08 10:55:00
3:55 AM,37.0,36.0,96,30.21,5.0,East,4.6,-,N/A,,Clear,100,2013-01-08 11:55:00
4:55 AM,37.0,36.0,96,30.20,5.0,East,3.5,-,N/A,,Clear,100,2013-01-08 12:55:00
5:55 AM,36.0,36.0,100,30.19,5.0,Calm,Calm,-,N/A,,Clear,0,2013-01-08 13:55:00
6:42 AM,33.8,33.8,100,30.21,1.8,Calm,Calm,-,N/A,,Clear,0,2013-01-08 14:42:00
6:55 AM,34.0,34.0,100,30.21,1.2,Calm,Calm,-,N/A,,Clear,0,2013-01-08 14:55:00
7:27 AM,33.8,33.8,100,30.22,3.0,Calm,Calm,-,N/A,,Clear,0,2013-01-08 15:27:00
7:55 AM,36.0,36.0,100,30.23,3.0,Calm,Calm,-,N/A,,Clear,0,2013-01-08 15:55:00
8:55 AM,39.9,39.0,97,30.25,6.0,East,3.5,-,N/A,,Clear,90,2013-01-08 16:55:00
9:55 AM,45.0,42.1,90,30.26,4.0,Calm,Calm,-,N/A,,Clear,0,2013-01-08 17:55:00
10:55 AM,48.0,42.1,80,30.23,6.0,Calm,Calm,-,N/A,,Haze,0,2013-01-08 18:55:00
11:55 AM,52.0,43.0,71,30.20,10.0,Calm,Calm,-,N/A,,Clear,0,2013-01-08 19:55:00
12:55 PM,53.1,43.0,69,30.19,10.0,NNW,3.5,-,N/A,,Clear,340,2013-01-08 20:55:00
1:55 PM,54.0,43.0,66,30.18,10.0,Calm,Calm,-,N/A,,Clear,0,2013-01-08 21:55:00
2:55 PM,55.0,43.0,64,30.17,10.0,Calm,Calm,-,N/A,,Clear,0,2013-01-08 22:55:00
3:55 PM,55.0,43.0,64,30.17,10.0,Calm,Calm,-,N/A,,Clear,0,2013-01-08 23:55:00
4:55 PM,52.0,43.0,71,30.15,10.0,Calm,Calm,-,N/A,,Clear,0,2013-01-09 00:55:00
5:55 PM,50.0,43.0,77,30.15,10.0,Calm,Calm,-,N/A,,Clear,0,2013-01-09 01:55:00
6:55 PM,46.0,42.1,86,30.16,8.0,SSE,5.8,-,N/A,,Clear,160,2013-01-09 02:55:00
7:55 PM,45.0,42.1,90,30.16,6.0,SE,3.5,-,N/A,,Clear,140,2013-01-09 03:55:00
8:55 PM,42.8,41.0,93,30.17,5.0,ESE,3.5,-,N/A,,Clear,110,2013-01-09 04:55:00
9:55 PM,41.0,39.9,96,30.16,4.0,East,5.8,-,N/A,,Clear,100,2013-01-09 05:55:00
10:55 PM,39.9,39.0,97,30.17,3.0,ENE,5.8,-,N/A,,Clear,70,2013-01-09 06:55:00
11:55 PM,39.9,39.0,97,30.17,3.0,East,4.6,-,N/A,,Clear,100,2013-01-09 07:55:00